Time,TemperatureF,DewpointF,PressureIn,WindDirection,WindDirectionDegrees,WindSpeedMPH,WindSpeedGustMPH,Humidity,HourlyPrecipIn,Conditions,Clouds,dailyrainin,SoftwareType,DateUTC
2013-02-13 00:01:00,51.0,29.0,30.07,NNW,333,7.0,9.0,43,0.00,,,0.00,,2013-02-13 08:01:00,
2013-02-13 00:11:00,51.0,30.0,30.07,NNW,336,5.0,11.0,44,0.00,,,0.00,,2013-02-13 08:11:00,
2013-02-13 00:21:00,51.0,30.0,30.07,NNW,336,5.0,11.0,44,0.00,,,0.00,,2013-02-13 08:21:00,
2013-02-13 00:31:00,51.0,30.0,30.07,NNW,336,5.0,11.0,44,0.00,,,0.00,,2013-02-13 08:31:00,
2013-02-13 00:42:00,51.0,30.0,30.07,NNW,336,5.0,11.0,44,0.00,,,0.00,,2013-02-13 08:42:00,
2013-02-13 00:52:00,50.0,29.0,30.06,NW,326,2.0,11.0,45,0.00,,,0.00,,2013-02-13 08:52:00,
2013-02-13 01:01:00,50.0,29.0,30.06,North,0,0.0,9.0,45,0.00,,,0.00,,2013-02-13 09:01:00,
2013-02-13 01:11:00,50.0,29.0,30.06,North,354,7.0,10.0,44,0.00,,,0.00,,2013-02-13 09:11:00,
2013-02-13 01:21:00,50.0,29.0,30.06,North,354,7.0,10.0,44,0.00,,,0.00,,2013-02-13 09:21:00,
2013-02-13 01:31:00,50.0,29.0,30.06,North,354,7.0,10.0,44,0.00,,,0.00,,2013-02-13 09:31:00,
2013-02-13 01:41:00,48.0,29.0,30.05,NNW,345,8.0,14.0,47,0.00,,,0.00,,2013-02-13 09:41:00,
2013-02-13 01:52:00,48.0,29.0,30.05,NNW,345,8.0,14.0,47,0.00,,,0.00,,2013-02-13 09:52:00,
2013-02-13 02:01:00,49.0,29.0,30.05,North,359,6.0,12.0,45,0.00,,,0.00,,2013-02-13 10:01:00,
2013-02-13 02:11:00,50.0,29.0,30.06,NNW,348,3.0,6.0,44,0.00,,,0.00,,2013-02-13 10:11:00,
2013-02-13 02:21:00,50.0,29.0,30.06,NNW,348,3.0,6.0,44,0.00,,,0.00,,2013-02-13 10:21:00,
2013-02-13 02:31:00,50.0,29.0,30.06,NNW,348,3.0,6.0,44,0.00,,,0.00,,2013-02-13 10:31:00,
2013-02-13 02:41:00,50.0,29.0,30.06,NNW,348,3.0,6.0,44,0.00,,,0.00,,2013-02-13 10:41:00,
2013-02-13 02:51:00,50.0,29.0,30.06,NNW,348,3.0,6.0,44,0.00,,,0.00,,2013-02-13 10:51:00,
2013-02-13 03:01:00,52.0,29.0,30.05,NNE,25,9.0,13.0,41,0.00,,,0.00,,2013-02-13 11:01:00,
2013-02-13 03:41:00,53.0,28.0,30.04,North,352,6.0,8.0,38,0.00,,,0.00,,2013-02-13 11:41:00,
2013-02-13 03:52:00,53.0,28.0,30.04,North,352,6.0,8.0,38,0.00,,,0.00,,2013-02-13 11:52:00,
2013-02-13 04:02:00,52.0,28.0,30.04,North,10,7.0,9.0,40,0.00,,,0.00,,2013-02-13 12:02:00,
2013-02-13 04:11:00,52.0,28.0,30.04,North,10,7.0,9.0,40,0.00,,,0.00,,2013-02-13 12:11:00,
2013-02-13 04:21:00,52.0,28.0,30.04,North,10,7.0,9.0,40,0.00,,,0.00,,2013-02-13 12:21:00,
2013-02-13 04:31:00,52.0,28.0,30.04,North,10,7.0,9.0,40,0.00,,,0.00,,2013-02-13 12:31:00,
2013-02-13 04:42:00,52.0,27.0,30.03,North,8,9.0,10.0,38,0.00,,,0.00,,2013-02-13 12:42:00,
2013-02-13 04:52:00,52.0,27.0,30.03,North,8,9.0,10.0,38,0.00,,,0.00,,2013-02-13 12:52:00,
2013-02-13 05:02:00,52.0,27.0,30.03,NNE,31,10.0,12.0,38,0.00,,,0.00,,2013-02-13 13:02:00,
2013-02-13 05:11:00,53.0,27.0,30.03,NNE,15,7.0,9.0,36,0.00,,,0.00,,2013-02-13 13:11:00,
2013-02-13 05:21:00,53.0,27.0,30.03,NNE,15,7.0,9.0,36,0.00,,,0.00,,2013-02-13 13:21:00,
2013-02-13 05:31:00,53.0,27.0,30.03,NNE,15,7.0,9.0,36,0.00,,,0.00,,2013-02-13 13:31:00,
2013-02-13 05:41:00,54.0,26.0,30.03,North,352,8.0,11.0,34,0.00,,,0.00,,2013-02-13 13:41:00,
2013-02-13 05:52:00,54.0,26.0,30.03,North,352,8.0,11.0,34,0.00,,,0.00,,2013-02-13 13:52:00,
2013-02-13 06:01:00,54.0,26.0,30.03,NNW,340,3.0,6.0,33,0.00,,,0.00,,2013-02-13 14:01:00,
2013-02-13 06:11:00,53.0,25.0,30.03,NNW,339,1.0,6.0,34,0.00,,,0.00,,2013-02-13 14:11:00,
2013-02-13 06:21:00,53.0,25.0,30.03,NNW,339,1.0,6.0,34,0.00,,,0.00,,2013-02-13 14:21:00,
2013-02-13 06:31:00,53.0,25.0,30.03,NNW,339,1.0,6.0,34,0.00,,,0.00,,2013-02-13 14:31:00,
2013-02-13 06:41:00,53.0,26.0,30.03,NW,324,1.0,3.0,35,0.00,,,0.00,,2013-02-13 14:41:00,
2013-02-13 06:52:00,53.0,26.0,30.03,NW,324,1.0,3.0,35,0.00,,,0.00,,2013-02-13 14:52:00,
2013-02-13 07:01:00,53.0,26.0,30.04,NW,325,5.0,7.0,35,0.00,,,0.00,,2013-02-13 15:01:00,
2013-02-13 07:11:00,53.0,26.0,30.04,NNW,334,6.0,7.0,35,0.00,,,0.00,,2013-02-13 15:11:00,
2013-02-13 07:21:00,53.0,26.0,30.04,NNW,334,6.0,7.0,35,0.00,,,0.00,,2013-02-13 15:21:00,
2013-02-13 07:31:00,53.0,26.0,30.04,NNW,334,6.0,7.0,35,0.00,,,0.00,,2013-02-13 15:31:00,
2013-02-13 07:41:00,53.0,26.0,30.04,NNW,334,6.0,7.0,35,0.00,,,0.00,,2013-02-13 15:41:00,
2013-02-13 07:52:00,54.0,26.0,30.05,NNW,338,4.0,8.0,33,0.00,,,0.00,,2013-02-13 15:52:00,
2013-02-13 08:01:00,54.0,25.0,30.05,North,6,5.0,9.0,32,0.00,,,0.00,,2013-02-13 16:01:00,
2013-02-13 08:11:00,54.0,26.0,30.06,North,6,3.0,8.0,33,0.00,,,0.00,,2013-02-13 16:11:00,
2013-02-13 08:21:00,54.0,26.0,30.06,North,6,3.0,8.0,33,0.00,,,0.00,,2013-02-13 16:21:00,
2013-02-13 08:31:00,54.0,26.0,30.06,North,6,3.0,8.0,33,0.00,,,0.00,,2013-02-13 16:31:00,
2013-02-13 08:41:00,54.0,26.0,30.06,North,6,3.0,8.0,33,0.00,,,0.00,,2013-02-13 16:41:00,
2013-02-13 08:52:00,55.0,23.0,30.06,NNE,16,1.0,5.0,29,0.00,,,0.00,,2013-02-13 16:52:00,
2013-02-13 09:01:00,58.0,26.0,30.06,ENE,57,4.0,8.0,29,0.00,,,0.00,,2013-02-13 17:01:00,
2013-02-13 09:11:00,58.0,21.0,30.06,ENE,69,6.0,14.0,24,0.00,,,0.00,,2013-02-13 17:11:00,
2013-02-13 09:21:00,58.0,21.0,30.06,ENE,69,6.0,14.0,24,0.00,,,0.00,,2013-02-13 17:21:00,
2013-02-13 09:31:00,58.0,21.0,30.06,ENE,69,6.0,14.0,24,0.00,,,0.00,,2013-02-13 17:31:00,
2013-02-13 09:41:00,58.0,21.0,30.06,ENE,69,6.0,14.0,24,0.00,,,0.00,,2013-02-13 17:41:00,
2013-02-13 09:52:00,57.0,21.0,30.06,NE,49,14.0,20.0,24,0.00,,,0.00,,2013-02-13 17:52:00,
2013-02-13 10:01:00,57.0,21.0,30.06,NE,42,16.0,25.0,24,0.00,,,0.00,,2013-02-13 18:01:00,
2013-02-13 10:11:00,57.0,22.0,30.06,East,93,11.0,23.0,26,0.00,,,0.00,,2013-02-13 18:11:00,
2013-02-13 10:22:00,57.0,22.0,30.06,East,93,11.0,23.0,26,0.00,,,0.00,,2013-02-13 18:22:00,
2013-02-13 10:31:00,57.0,22.0,30.06,East,93,11.0,23.0,26,0.00,,,0.00,,2013-02-13 18:31:00,
2013-02-13 10:41:00,57.0,22.0,30.06,East,93,11.0,23.0,26,0.00,,,0.00,,2013-02-13 18:41:00,
2013-02-13 10:52:00,58.0,24.0,30.07,SE,124,13.0,22.0,27,0.00,,,0.00,,2013-02-13 18:52:00,
2013-02-13 11:01:00,60.0,24.0,30.07,East,92,10.0,19.0,25,0.00,,,0.00,,2013-02-13 19:01:00,
2013-02-13 11:11:00,58.0,24.0,30.06,NE,44,6.0,14.0,27,0.00,,,0.00,,2013-02-13 19:11:00,
2013-02-13 11:21:00,58.0,24.0,30.06,NE,44,6.0,14.0,27,0.00,,,0.00,,2013-02-13 19:21:00,
2013-02-13 11:31:00,58.0,24.0,30.06,NE,44,6.0,14.0,27,0.00,,,0.00,,2013-02-13 19:31:00,
2013-02-13 11:41:00,58.0,24.0,30.06,NE,44,6.0,14.0,27,0.00,,,0.00,,2013-02-13 19:41:00,
2013-02-13 11:52:00,58.0,28.0,30.05,East,100,5.0,10.0,31,0.00,,,0.00,,2013-02-13 19:52:00,
2013-02-13 12:01:00,61.0,29.0,30.04,ENE,73,4.0,11.0,29,0.00,,,0.00,,2013-02-13 20:01:00,
2013-02-13 12:11:00,61.0,35.0,30.03,South,169,4.0,8.0,37,0.00,,,0.00,,2013-02-13 20:11:00,
2013-02-13 12:21:00,61.0,35.0,30.03,South,169,4.0,8.0,37,0.00,,,0.00,,2013-02-13 20:21:00,
2013-02-13 12:31:00,61.0,35.0,30.03,South,169,4.0,8.0,37,0.00,,,0.00,,2013-02-13 20:31:00,
2013-02-13 12:41:00,59.0,34.0,30.02,South,171,2.0,6.0,39,0.00,,,0.00,,2013-02-13 20:41:00,
2013-02-13 12:52:00,59.0,34.0,30.02,South,171,2.0,6.0,39,0.00,,,0.00,,2013-02-13 20:52:00,
2013-02-13 13:01:00,59.0,34.0,30.02,South,171,2.0,6.0,39,0.00,,,0.00,,2013-02-13 21:01:00,
2013-02-13 13:11:00,58.0,42.0,30.00,SSE,166,5.0,9.0,56,0.00,,,0.00,,2013-02-13 21:11:00,
2013-02-13 13:21:00,58.0,42.0,30.00,SSE,166,5.0,9.0,56,0.00,,,0.00,,2013-02-13 21:21:00,
2013-02-13 13:32:00,58.0,42.0,30.00,SSE,166,5.0,9.0,56,0.00,,,0.00,,2013-02-13 21:32:00,
2013-02-13 13:42:00,57.0,42.0,29.99,SSE,149,3.0,8.0,57,0.00,,,0.00,,2013-02-13 21:42:00,
2013-02-13 13:52:00,57.0,42.0,29.99,SSE,149,3.0,8.0,57,0.00,,,0.00,,2013-02-13 21:52:00,
2013-02-13 14:01:00,57.0,42.0,29.98,SSE,164,5.0,8.0,58,0.00,,,0.00,,2013-02-13 22:01:00,
2013-02-13 14:11:00,57.0,41.0,29.98,South,169,4.0,8.0,54,0.00,,,0.00,,2013-02-13 22:11:00,
2013-02-13 14:21:00,57.0,41.0,29.98,South,169,4.0,8.0,54,0.00,,,0.00,,2013-02-13 22:21:00,
2013-02-13 14:31:00,57.0,41.0,29.98,South,169,4.0,8.0,54,0.00,,,0.00,,2013-02-13 22:31:00,
2013-02-13 14:41:00,57.0,41.0,29.98,South,169,4.0,8.0,54,0.00,,,0.00,,2013-02-13 22:41:00,
2013-02-13 14:51:00,58.0,40.0,29.97,North,0,0.0,5.0,52,0.00,,,0.00,,2013-02-13 22:51:00,
2013-02-13 15:01:00,59.0,36.0,29.97,North,0,0.0,4.0,42,0.00,,,0.00,,2013-02-13 23:01:00,
2013-02-13 15:11:00,58.0,39.0,29.96,South,174,3.0,5.0,49,0.00,,,0.00,,2013-02-13 23:11:00,
2013-02-13 15:21:00,58.0,39.0,29.96,South,174,3.0,5.0,49,0.00,,,0.00,,2013-02-13 23:21:00,
2013-02-13 15:31:00,58.0,39.0,29.96,South,174,3.0,5.0,49,0.00,,,0.00,,2013-02-13 23:31:00,
2013-02-13 15:41:00,58.0,39.0,29.96,South,174,3.0,5.0,49,0.00,,,0.00,,2013-02-13 23:41:00,
2013-02-13 15:52:00,56.0,37.0,29.96,South,182,2.0,6.0,49,0.00,,,0.00,,2013-02-13 23:52:00,
2013-02-13 16:01:00,57.0,34.0,29.96,WSW,247,3.0,10.0,41,0.00,,,0.00,,2013-02-14 00:01:00,
2013-02-13 16:11:00,57.0,34.0,29.96,WSW,247,3.0,10.0,41,0.00,,,0.00,,2013-02-14 00:11:00,
2013-02-13 16:21:00,57.0,34.0,29.97,WSW,248,5.0,9.0,41,0.00,,,0.00,,2013-02-14 00:21:00,
2013-02-13 16:31:00,57.0,34.0,29.97,WSW,248,5.0,9.0,41,0.00,,,0.00,,2013-02-14 00:31:00,
2013-02-13 16:41:00,57.0,34.0,29.97,WSW,248,5.0,9.0,41,0.00,,,0.00,,2013-02-14 00:41:00,
2013-02-13 16:52:00,57.0,36.0,29.95,West,270,2.0,9.0,45,0.00,,,0.00,,2013-02-14 00:52:00,
2013-02-13 17:01:00,57.0,36.0,29.95,West,260,1.0,12.0,45,0.00,,,0.00,,2013-02-14 01:01:00,
2013-02-13 17:11:00,57.0,35.0,29.94,West,275,4.0,13.0,44,0.00,,,0.00,,2013-02-14 01:11:00,
2013-02-13 17:21:00,57.0,35.0,29.94,West,275,4.0,13.0,44,0.00,,,0.00,,2013-02-14 01:21:00,
2013-02-13 17:31:00,57.0,35.0,29.94,West,275,4.0,13.0,44,0.00,,,0.00,,2013-02-14 01:31:00,
2013-02-13 17:41:00,57.0,35.0,29.94,West,275,4.0,13.0,44,0.00,,,0.00,,2013-02-14 01:41:00,
2013-02-13 17:51:00,56.0,36.0,29.95,WNW,289,9.0,13.0,46,0.00,,,0.00,,2013-02-14 01:51:00,
2013-02-13 18:01:00,55.0,36.0,29.94,WNW,286,6.0,10.0,48,0.00,,,0.00,,2013-02-14 02:01:00,
2013-02-13 18:11:00,55.0,36.0,29.94,WNW,286,6.0,10.0,48,0.00,,,0.00,,2013-02-14 02:11:00,
2013-02-13 18:21:00,55.0,36.0,29.94,WNW,286,6.0,10.0,48,0.00,,,0.00,,2013-02-14 02:21:00,
2013-02-13 18:31:00,55.0,36.0,29.94,WNW,286,6.0,10.0,48,0.00,,,0.00,,2013-02-14 02:31:00,
2013-02-13 18:41:00,55.0,36.0,29.94,WNW,286,6.0,10.0,48,0.00,,,0.00,,2013-02-14 02:41:00,
2013-02-13 19:02:00,55.0,36.0,29.94,NW,304,9.0,12.0,48,0.00,,,0.00,,2013-02-14 03:02:00,
2013-02-13 19:11:00,55.0,34.0,29.95,WNW,300,5.0,9.0,45,0.00,,,0.00,,2013-02-14 03:11:00,
2013-02-13 19:21:00,55.0,34.0,29.95,WNW,300,5.0,9.0,45,0.00,,,0.00,,2013-02-14 03:21:00,
2013-02-13 19:31:00,55.0,34.0,29.95,WNW,300,5.0,9.0,45,0.00,,,0.00,,2013-02-14 03:31:00,
2013-02-13 19:42:00,55.0,33.0,29.95,WNW,294,4.0,7.0,44,0.00,,,0.00,,2013-02-14 03:42:00,
2013-02-13 19:52:00,55.0,33.0,29.95,WNW,294,4.0,7.0,44,0.00,,,0.00,,2013-02-14 03:52:00,
2013-02-13 20:01:00,57.0,35.0,29.95,NW,317,3.0,8.0,43,0.00,,,0.00,,2013-02-14 04:01:00,
2013-02-13 20:11:00,57.0,34.0,29.95,NNW,334,1.0,9.0,42,0.00,,,0.00,,2013-02-14 04:11:00,
2013-02-13 20:21:00,57.0,34.0,29.95,NNW,334,1.0,9.0,42,0.00,,,0.00,,2013-02-14 04:21:00,
2013-02-13 20:31:00,57.0,34.0,29.95,NNW,334,1.0,9.0,42,0.00,,,0.00,,2013-02-14 04:31:00,
2013-02-13 20:41:00,57.0,34.0,29.95,NNW,334,1.0,9.0,42,0.00,,,0.00,,2013-02-14 04:41:00,
2013-02-13 20:51:00,57.0,32.0,29.96,North,0,0.0,5.0,39,0.00,,,0.00,,2013-02-14 04:51:00,
2013-02-13 21:01:00,57.0,31.0,29.96,North,0,0.0,0.0,37,0.00,,,0.00,,2013-02-14 05:01:00,
2013-02-13 21:11:00,57.0,31.0,29.96,North,0,0.0,0.0,37,0.00,,,0.00,,2013-02-14 05:11:00,
2013-02-13 21:21:00,58.0,29.0,29.96,North,6,4.0,6.0,33,0.00,,,0.00,,2013-02-14 05:21:00,
2013-02-13 21:31:00,58.0,29.0,29.96,North,6,4.0,6.0,33,0.00,,,0.00,,2013-02-14 05:31:00,
2013-02-13 21:41:00,58.0,29.0,29.96,North,6,4.0,6.0,33,0.00,,,0.00,,2013-02-14 05:41:00,
2013-02-13 21:52:00,59.0,30.0,29.96,NE,46,5.0,8.0,33,0.00,,,0.00,,2013-02-14 05:52:00,
2013-02-13 22:01:00,57.0,30.0,29.96,NE,53,1.0,6.0,35,0.00,,,0.00,,2013-02-14 06:01:00,
2013-02-13 22:11:00,59.0,31.0,29.96,NE,52,8.0,9.0,34,0.00,,,0.00,,2013-02-14 06:11:00,
2013-02-13 22:21:00,59.0,31.0,29.96,NE,52,8.0,9.0,34,0.00,,,0.00,,2013-02-14 06:21:00,
2013-02-13 22:31:00,59.0,31.0,29.96,NE,52,8.0,9.0,34,0.00,,,0.00,,2013-02-14 06:31:00,
2013-02-13 22:41:00,59.0,31.0,29.96,NE,52,8.0,9.0,34,0.00,,,0.00,,2013-02-14 06:41:00,
2013-02-13 22:51:00,58.0,30.0,29.96,NE,35,13.0,15.0,34,0.00,,,0.00,,2013-02-14 06:51:00,
2013-02-13 23:01:00,59.0,29.0,29.97,NE,40,9.0,11.0,32,0.00,,,0.00,,2013-02-14 07:01:00,
2013-02-13 23:11:00,59.0,28.0,29.97,NE,48,7.0,9.0,31,0.00,,,0.00,,2013-02-14 07:11:00,
2013-02-13 23:21:00,59.0,28.0,29.97,NE,48,7.0,9.0,31,0.00,,,0.00,,2013-02-14 07:21:00,
2013-02-13 23:31:00,59.0,28.0,29.97,NE,48,7.0,9.0,31,0.00,,,0.00,,2013-02-14 07:31:00,
2013-02-13 23:41:00,59.0,28.0,29.97,NE,48,7.0,9.0,31,0.00,,,0.00,,2013-02-14 07:41:00,
2013-02-13 23:52:00,59.0,28.0,29.96,NE,45,6.0,9.0,30,0.00,,,0.00,,2013-02-14 07:52:00,